Pagina principale
METAR-TAF:

METAR-TAF

Aeroporti :

Monte Malanotte

Prato Nevoso, Italia

latitudine: 44-15N, longitudine: 007-48E, altezza: 1741 m

Osservazione

Il bollettino è stato emesso 43 minuti fa, alle 15:55 UTC
Vento 3 kt da ovest
Temperature 10°C
Umidità 46%
Pressione 1017 hPa
Visibilità 10 km o più
nessuna nube inferiore a 1500 m e nessun cumulonembo

METAR: LIMY 201555Z 28003KT CAVOK 10/M01 Q1017 RMK SKC VAL NIL VIS MIN 9999

Ora: 17:38 (16:38 UTC)


TAF: mancante

Osservazioni e previsioni meteorologiche di più di 4000 aeroporti (messaggi METAR e TAF).

Le stazioni disponibili sono rappresentate dai dischi gialli e rossi sulla carta.

Puntare il mouse per vedere il nome della stazione.

Clicca sopra per visualizzare le osservazioni e previsioni meteorologiche.

Per cambiare la mappa : fare clic sui pulsanti verdi con una croce nera per ingrandire, il pulsante verde con un trattino per diminuire, o sulla freccia verde per le mappe adiacenti.


METAR-TAF: